EJU5420 LIMC-EGCC

Flight info

Callsign EJU5420
Flight time N/A
Altitude 38000
Route AOSTA5X AOSTA DCT ORSUD DCT MOLUS DCT IBODI DCT GOTED DCT TRO DCT CLM DCT KOPOR DCT VESAN DCT RATUK DCT SOVAT L613 SANDY UN57 WELIN T420 ELVOS ELVOS1M
Aircraft A32N/M-V/N

Departure

Time 2026-05-06 18:19
Airport Milan Malpensa International Airport (LIMC)

Arrival

Time N/A
Airport Manchester Airport (EGCC)
Time Latitude Longitude Altitude Speed Heading
2026-05-06 18:15 45.61711 8.73274 741 ft 0 kts 123°
2026-05-06 18:16 45.61711 8.73276 741 ft 1 kts 123°
2026-05-06 18:16 45.61691 8.73318 741 ft 9 kts 123°
2026-05-06 18:16 45.61645 8.73417 741 ft 14 kts 124°
2026-05-06 18:17 45.61591 8.73546 741 ft 16 kts 104°
2026-05-06 18:17 45.61600 8.73706 741 ft 16 kts 78°
2026-05-06 18:17 45.61674 8.73727 741 ft 9 kts 348°
2026-05-06 18:17 45.61677 8.73726 740 ft 0 kts 348°
2026-05-06 18:18 45.61680 8.73725 740 ft 5 kts 348°
2026-05-06 18:18 45.61930 8.73655 741 ft 70 kts 349°
2026-05-06 18:18 45.62605 8.73465 741 ft 124 kts 349°
2026-05-06 18:19 45.63570 8.73193 903 ft 151 kts 349°
2026-05-06 18:19 45.64616 8.72872 1368 ft 157 kts 347°
2026-05-06 18:19 45.65704 8.72492 1886 ft 164 kts 347°
2026-05-06 18:19 45.66815 8.72075 2419 ft 167 kts 346°
2026-05-06 18:20 45.67960 8.71633 2879 ft 176 kts 348°
2026-05-06 18:20 45.69236 8.71333 3156 ft 196 kts 353°
2026-05-06 18:20 45.70157 8.71106 3369 ft 209 kts 342°
2026-05-06 18:20 45.70506 8.70921 3477 ft 214 kts 335°
2026-05-06 18:21 45.71718 8.69537 3892 ft 235 kts 305°
2026-05-06 18:21 45.72359 8.67329 4430 ft 254 kts 276°
2026-05-06 18:21 45.72294 8.64738 5198 ft 265 kts 261°
2026-05-06 18:21 45.72064 8.62109 6202 ft 268 kts 263°
2026-05-06 18:22 45.71956 8.59421 7144 ft 272 kts 268°
2026-05-06 18:22 45.71993 8.56710 8142 ft 274 kts 271°
2026-05-06 18:22 45.72124 8.53979 9147 ft 276 kts 273°
2026-05-06 18:22 45.72300 8.51226 10082 ft 280 kts 274°
2026-05-06 18:23 45.72499 8.48353 10580 ft 300 kts 274°
2026-05-06 18:23 45.72714 8.45265 10922 ft 323 kts 274°
2026-05-06 18:23 45.72936 8.42042 11584 ft 331 kts 274°
2026-05-06 18:23 45.73162 8.38739 12454 ft 334 kts 274°
2026-05-06 18:24 45.73387 8.35424 13303 ft 338 kts 273°
2026-05-06 18:24 45.73613 8.32059 14102 ft 342 kts 273°
2026-05-06 18:24 45.73839 8.28653 14847 ft 346 kts 273°
2026-05-06 18:24 45.74067 8.25196 15569 ft 350 kts 272°
2026-05-06 18:25 45.74294 8.21704 16267 ft 355 kts 272°
2026-05-06 18:25 45.74524 8.18172 17020 ft 358 kts 272°
2026-05-06 18:25 45.74757 8.14594 17699 ft 363 kts 272°
2026-05-06 18:25 45.74991 8.10986 18436 ft 364 kts 272°
2026-05-06 18:26 45.75225 8.07369 19121 ft 366 kts 272°
2026-05-06 18:26 45.75460 8.03711 19689 ft 369 kts 271°
2026-05-06 18:26 45.75690 8.00092 20347 ft 371 kts 271°
2026-05-06 18:26 45.75926 7.96352 20989 ft 373 kts 271°
2026-05-06 18:27 45.76158 7.92685 21621 ft 376 kts 271°
2026-05-06 18:27 45.76393 7.88936 22194 ft 379 kts 271°
2026-05-06 18:27 45.76626 7.85168 22877 ft 381 kts 271°
2026-05-06 18:27 45.76861 7.81364 23467 ft 385 kts 271°
2026-05-06 18:28 45.77096 7.77541 23981 ft 386 kts 271°
2026-05-06 18:28 45.77331 7.73697 24535 ft 388 kts 270°
2026-05-06 18:28 45.77567 7.69823 25071 ft 391 kts 270°
2026-05-06 18:28 45.77802 7.65935 25572 ft 393 kts 270°
2026-05-06 18:29 45.78037 7.62019 26082 ft 396 kts 270°
2026-05-06 18:29 45.78273 7.58068 26567 ft 398 kts 270°
2026-05-06 18:29 45.78509 7.54133 27094 ft 399 kts 270°
2026-05-06 18:29 45.78745 7.50133 27476 ft 404 kts 269°
2026-05-06 18:30 45.78980 7.46115 27907 ft 406 kts 269°
2026-05-06 18:30 45.79238 7.42067 28315 ft 411 kts 273°
2026-05-06 18:30 45.79957 7.38050 28718 ft 423 kts 285°
2026-05-06 18:30 45.81308 7.34298 28995 ft 436 kts 298°
2026-05-06 18:31 45.83323 7.30896 29289 ft 450 kts 311°
2026-05-06 18:31 45.85779 7.28122 29545 ft 460 kts 319°
2026-05-06 18:31 45.88421 7.25485 29918 ft 463 kts 320°
2026-05-06 18:31 45.91085 7.22864 30292 ft 465 kts 320°
2026-05-06 18:32 45.93750 7.20215 30637 ft 467 kts 320°
2026-05-06 18:32 45.96423 7.17522 30929 ft 469 kts 320°
2026-05-06 18:32 45.99087 7.14811 31318 ft 469 kts 320°
2026-05-06 18:32 46.01749 7.12089 31734 ft 469 kts 320°
2026-05-06 18:33 46.04405 7.09365 32128 ft 468 kts 319°
2026-05-06 18:33 46.07055 7.06641 32535 ft 468 kts 320°
2026-05-06 18:33 46.09702 7.03918 32897 ft 467 kts 319°
2026-05-06 18:33 46.12350 7.01193 33269 ft 467 kts 319°
2026-05-06 18:34 46.14991 6.98473 33631 ft 466 kts 319°
2026-05-06 18:34 46.17627 6.95757 33914 ft 466 kts 320°
2026-05-06 18:34 46.20266 6.93032 34212 ft 466 kts 319°